| time (UTC) | temp F | wind direction | speed knots | gust knots | rain 1hr in | rain 24hr in | rain mn in | humidity % | barometer mb |
| 20260904122501 | 52 | 102 | 0.0 | 0.0 | 0.00 | 0.00 | 0.00 | 92 | 1013.8 |
| 20260904121955 | 52 | 102 | 0.0 | 0.0 | 0.00 | 0.00 | 0.00 | 92 | 1013.8 |
| 20260904121451 | 52 | 102 | 0.0 | 0.0 | 0.00 | 0.00 | 0.00 | 92 | 1013.8 |
| 20260904120948 | 52 | 102 | 0.0 | 0.0 | 0.00 | 0.00 | 0.00 | 92 | 1013.8 |
| 20260904120443 | 52 | 102 | 0.9 | 1.7 | 0.00 | 0.00 | 0.00 | 92 | 1013.8 |
| 20260904115938 | 52 | 102 | 0.0 | 0.9 | 0.00 | 0.00 | 0.00 | 92 | 1013.5 |
| 20260904115433 | 52 | 102 | 0.0 | 0.9 | 0.00 | 0.00 | 0.00 | 92 | 1013.8 |
| 20260904114928 | 52 | 102 | 0.0 | 0.9 | 0.00 | 0.00 | 0.00 | 92 | 1013.8 |
| 20260904114428 | 52 | 102 | 0.0 | 0.9 | 0.00 | 0.00 | 0.00 | 92 | 1013.8 |
| 20260904113924 | 52 | 102 | 0.0 | 1.7 | 0.00 | 0.00 | 0.00 | 92 | 1013.8 |
| 20260904113423 | 52 | 102 | 0.9 | 0.9 | 0.00 | 0.00 | 0.00 | 92 | 1013.8 |
| 20260904112922 | 52 | 102 | 0.0 | 0.9 | 0.00 | 0.00 | 0.00 | 92 | 1013.8 |
| 20260904112418 | 52 | 102 | 0.9 | 0.9 | 0.00 | 0.00 | 0.00 | 91 | 1013.8 |
| 20260904111914 | 51 | 102 | 0.0 | 0.0 | 0.00 | 0.00 | 0.00 | 91 | 1013.8 |
| 20260904111409 | 51 | 102 | 0.0 | 0.0 | 0.00 | 0.00 | 0.00 | 91 | 1013.5 |
| 20260904110905 | 51 | 102 | 0.0 | 0.0 | 0.00 | 0.00 | 0.00 | 91 | 1013.5 |
| 20260904110403 | 51 | 102 | 0.0 | 0.0 | 0.00 | 0.00 | 0.00 | 91 | 1013.8 |
| 20260904105859 | 51 | 102 | 0.0 | 0.0 | 0.00 | 0.00 | 0.00 | 91 | 1013.5 |
| 20260904105354 | 51 | 102 | 0.0 | 0.0 | 0.00 | 0.00 | 0.00 | 91 | 1013.8 |
| 20260904104849 | 51 | 102 | 0.0 | 0.0 | 0.00 | 0.00 | 0.00 | 91 | 1013.5 |
| 20260904104344 | 52 | 102 | 0.0 | 0.0 | 0.00 | 0.00 | 0.00 | 90 | 1013.5 |
| 20260904103841 | 52 | 102 | 0.0 | 0.9 | 0.00 | 0.00 | 0.00 | 90 | 1013.5 |
| 20260904103340 | 52 | 102 | 1.7 | 1.7 | 0.00 | 0.00 | 0.00 | 90 | 1013.5 |
| 20260904102836 | 53 | 102 | 0.0 | 0.0 | 0.00 | 0.00 | 0.00 | 90 | 1013.5 |
| 20260904102331 | 52 | 102 | 0.0 | 0.0 | 0.00 | 0.00 | 0.00 | 90 | 1013.5 |
| 20260904101827 | 52 | 102 | 0.0 | 0.0 | 0.00 | 0.00 | 0.00 | 90 | 1013.5 |
| 20260904101324 | 52 | 102 | 0.0 | 0.0 | 0.00 | 0.00 | 0.00 | 91 | 1013.1 |
| 20260904100819 | 52 | 102 | 0.0 | 0.0 | 0.00 | 0.00 | 0.00 | 91 | 1013.1 |
| 20260904100316 | 52 | 102 | 0.0 | 0.9 | 0.00 | 0.00 | 0.00 | 92 | 1013.1 |
| 20260904095815 | 52 | 102 | 0.0 | 0.9 | 0.00 | 0.00 | 0.00 | 92 | 1013.1 |
| 20260904095310 | 52 | 101 | 0.9 | 0.9 | 0.00 | 0.00 | 0.00 | 92 | 1013.1 |
| 20260904094805 | 52 | 101 | 0.0 | 0.9 | 0.00 | 0.00 | 0.00 | 93 | 1013.1 |
| 20260904094300 | 51 | 101 | 0.0 | 0.9 | 0.00 | 0.00 | 0.00 | 93 | 1013.1 |
| 20260904093757 | 51 | 101 | 0.0 | 0.9 | 0.00 | 0.00 | 0.00 | 93 | 1013.1 |
| 20260904093251 | 51 | 102 | 0.0 | 0.0 | 0.00 | 0.00 | 0.00 | 93 | 1013.1 |
| 20260904092746 | 51 | 102 | 0.0 | 0.0 | 0.00 | 0.00 | 0.00 | 93 | 1013.1 |
| 20260904092243 | 50 | 102 | 0.0 | 0.0 | 0.00 | 0.00 | 0.00 | 93 | 1013.1 |
| 20260904091738 | 50 | 102 | 0.0 | 0.0 | 0.00 | 0.00 | 0.00 | 93 | 1013.5 |
| 20260904091233 | 50 | 102 | 0.0 | 0.0 | 0.00 | 0.00 | 0.00 | 93 | 1013.5 |
| 20260904090729 | 50 | 102 | 0.0 | 0.0 | 0.00 | 0.00 | 0.00 | 93 | 1013.5 |
| 20260904090224 | 50 | 102 | 0.0 | 0.9 | 0.00 | 0.00 | 0.00 | 93 | 1013.5 |
| 20260904085719 | 50 | 102 | 1.7 | 1.7 | 0.00 | 0.00 | 0.00 | 93 | 1013.5 |
| 20260904085214 | 50 | 151 | 0.0 | 0.0 | 0.00 | 0.00 | 0.00 | 93 | 1013.5 |
| 20260904084708 | 50 | 146 | 0.0 | 0.0 | 0.00 | 0.00 | 0.00 | 93 | 1013.8 |
| 20260904084159 | 51 | 141 | 0.9 | 0.9 | 0.00 | 0.00 | 0.00 | 92 | 1013.5 |
| 20260904083655 | 51 | 132 | 0.0 | 0.0 | 0.00 | 0.00 | 0.00 | 92 | 1013.8 |
| 20260904083152 | 51 | 131 | 0.0 | 0.0 | 0.00 | 0.00 | 0.00 | 92 | 1013.8 |
| 20260904082646 | 51 | 132 | 0.0 | 0.9 | 0.00 | 0.00 | 0.00 | 92 | 1013.8 |
| 20260904082141 | 51 | 132 | 0.0 | 0.0 | 0.00 | 0.00 | 0.00 | 92 | 1013.8 |
| 20260904081631 | 51 | 132 | 0.0 | 0.0 | 0.00 | 0.00 | 0.00 | 92 | 1013.5 |
| 20260904081126 | 51 | 132 | 0.0 | 0.0 | 0.00 | 0.00 | 0.00 | 92 | 1013.8 |
| 20260904080621 | 51 | 132 | 0.0 | 0.0 | 0.00 | 0.00 | 0.00 | 92 | 1013.8 |
| 20260904080118 | 51 | 131 | 0.0 | 0.0 | 0.00 | 0.00 | 0.00 | 92 | 1013.8 |
| 20260904075613 | 51 | 131 | 0.9 | 0.9 | 0.00 | 0.00 | 0.00 | 92 | 1013.8 |
| 20260904075112 | 51 | 131 | 0.0 | 0.9 | 0.00 | 0.00 | 0.00 | 91 | 1013.8 |
| 20260904074607 | 51 | 132 | 0.0 | 0.9 | 0.00 | 0.00 | 0.00 | 92 | 1013.8 |
| 20260904074102 | 51 | 126 | 0.0 | 0.0 | 0.00 | 0.00 | 0.00 | 91 | 1013.8 |
| 20260904073556 | 51 | 126 | 0.0 | 0.0 | 0.00 | 0.00 | 0.00 | 91 | 1013.8 |
| 20260904073053 | 51 | 126 | 0.0 | 0.0 | 0.00 | 0.00 | 0.00 | 91 | 1013.8 |
| 20260904072548 | 51 | 126 | 0.0 | 0.0 | 0.00 | 0.00 | 0.00 | 91 | 1013.5 |
| 20260904072044 | 52 | 126 | 0.0 | 0.0 | 0.00 | 0.00 | 0.00 | 90 | 1013.8 |
| 20260904071539 | 52 | 126 | 0.0 | 0.0 | 0.00 | 0.00 | 0.00 | 90 | 1013.8 |
| 20260904071034 | 52 | 126 | 0.0 | 0.0 | 0.00 | 0.00 | 0.00 | 90 | 1013.8 |
| 20260904070533 | 52 | 126 | 0.0 | 0.0 | 0.00 | 0.00 | 0.00 | 90 | 1013.8 |
| 20260904070028 | 52 | 126 | 0.0 | 0.0 | 0.00 | 0.06 | 0.06 | 90 | 1013.8 |
| 20260904065523 | 52 | 126 | 0.0 | 0.0 | 0.00 | 0.06 | 0.06 | 90 | 1013.8 |
| 20260904065019 | 52 | 126 | 0.0 | 0.0 | 0.00 | 0.06 | 0.06 | 90 | 1013.5 |
| 20260904064515 | 52 | 126 | 0.0 | 0.0 | 0.00 | 0.06 | 0.06 | 90 | 1013.5 |
| 20260904064009 | 52 | 151 | 0.0 | 0.0 | 0.00 | 0.06 | 0.06 | 90 | 1013.5 |
| 20260904063506 | 52 | 151 | 0.0 | 0.0 | 0.00 | 0.06 | 0.06 | 89 | 1013.5 |
| 20260904063000 | 52 | 168 | 0.0 | 0.9 | 0.00 | 0.06 | 0.06 | 89 | 1013.5 |
| 20260904062456 | 52 | 168 | 0.0 | 0.0 | 0.00 | 0.06 | 0.06 | 89 | 1013.5 |
| 20260904061952 | 52 | 157 | 0.0 | 0.0 | 0.00 | 0.06 | 0.06 | 89 | 1013.5 |
| 20260904061448 | 53 | 137 | 0.0 | 0.0 | 0.00 | 0.06 | 0.06 | 88 | 1013.5 |
| 20260904060944 | 53 | 137 | 0.0 | 0.0 | 0.00 | 0.06 | 0.06 | 88 | 1013.5 |
| 20260904060440 | 53 | 137 | 0.0 | 0.0 | 0.00 | 0.06 | 0.06 | 88 | 1013.5 |
| 20260904055935 | 53 | 137 | 0.0 | 0.0 | 0.00 | 0.06 | 0.06 | 88 | 1013.5 |
| 20260904055431 | 53 | 137 | 0.0 | 0.0 | 0.00 | 0.06 | 0.06 | 88 | 1013.5 |
| 20260904054926 | 53 | 137 | 0.0 | 0.0 | 0.00 | 0.06 | 0.06 | 88 | 1013.5 |
| 20260904054421 | 53 | 137 | 0.0 | 0.0 | 0.00 | 0.06 | 0.06 | 88 | 1013.1 |
| 20260904053917 | 53 | 137 | 0.0 | 0.0 | 0.00 | 0.06 | 0.06 | 88 | 1013.5 |
| 20260904053416 | 53 | 137 | 0.0 | 0.0 | 0.00 | 0.06 | 0.06 | 88 | 1013.5 |
| 20260904052912 | 53 | 137 | 0.0 | 0.9 | 0.00 | 0.06 | 0.06 | 89 | 1013.5 |
| 20260904052409 | 53 | 91 | 0.0 | 0.0 | 0.00 | 0.06 | 0.06 | 89 | 1013.5 |
| 20260904051905 | 53 | 92 | 0.0 | 0.9 | 0.00 | 0.06 | 0.06 | 89 | 1013.5 |
| 20260904051400 | 53 | 107 | 0.0 | 0.0 | 0.00 | 0.06 | 0.06 | 89 | 1013.5 |
| 20260904050854 | 53 | 86 | 0.0 | 0.0 | 0.00 | 0.06 | 0.06 | 89 | 1013.5 |
| 20260904050351 | 53 | 91 | 0.0 | 0.0 | 0.00 | 0.06 | 0.06 | 88 | 1013.5 |
| 20260904045845 | 53 | 88 | 0.0 | 0.0 | 0.00 | 0.06 | 0.06 | 88 | 1013.5 |
| 20260904045340 | 53 | 87 | 0.0 | 0.0 | 0.00 | 0.06 | 0.06 | 88 | 1013.5 |
| 20260904044835 | 53 | 89 | 0.0 | 0.0 | 0.00 | 0.06 | 0.06 | 88 | 1013.5 |
| 20260904044331 | 53 | 89 | 0.0 | 0.0 | 0.00 | 0.06 | 0.06 | 88 | 1013.5 |
| 20260904043827 | 53 | 90 | 0.0 | 0.0 | 0.00 | 0.06 | 0.06 | 88 | 1013.5 |
| 20260904043324 | 53 | 101 | 0.0 | 0.9 | 0.00 | 0.06 | 0.06 | 88 | 1013.5 |
| 20260904042824 | 53 | 64 | 0.9 | 0.9 | 0.00 | 0.06 | 0.06 | 87 | 1013.5 |
| 20260904042320 | 53 | 94 | 0.0 | 0.9 | 0.00 | 0.06 | 0.06 | 87 | 1013.5 |
| 20260904041820 | 54 | 110 | 0.0 | 0.0 | 0.00 | 0.06 | 0.06 | 87 | 1013.5 |
| 20260904041316 | 54 | 147 | 0.0 | 0.0 | 0.00 | 0.06 | 0.06 | 86 | 1013.5 |
| 20260904040812 | 54 | 100 | 0.0 | 0.0 | 0.00 | 0.06 | 0.06 | 86 | 1013.5 |
| 20260904040306 | 54 | 177 | 0.0 | 0.9 | 0.00 | 0.06 | 0.06 | 86 | 1013.5 |
| 20260904035803 | 54 | 125 | 0.0 | 0.9 | 0.00 | 0.06 | 0.06 | 85 | 1013.5 |
| 20260904035259 | 55 | 117 | 0.9 | 0.9 | 0.00 | 0.06 | 0.06 | 85 | 1013.5 |
| 20260904034757 | 55 | 97 | 0.0 | 0.9 | 0.00 | 0.06 | 0.06 | 84 | 1013.5 |
| 20260904034253 | 55 | 114 | 0.0 | 0.9 | 0.00 | 0.06 | 0.06 | 84 | 1013.1 |
| 20260904033749 | 55 | 112 | 0.0 | 1.7 | 0.00 | 0.06 | 0.06 | 84 | 1013.5 |
| 20260904033245 | 55 | 13 | 0.9 | 2.6 | 0.00 | 0.06 | 0.06 | 84 | 1013.5 |
| 20260904032741 | 55 | 71 | 0.0 | 0.9 | 0.00 | 0.06 | 0.06 | 84 | 1013.1 |
| 20260904032240 | 55 | 26 | 0.9 | 1.7 | 0.00 | 0.06 | 0.06 | 84 | 1013.1 |
| 20260904031735 | 55 | 109 | 0.0 | 1.7 | 0.00 | 0.06 | 0.06 | 84 | 1013.5 |
| 20260904031230 | 55 | 107 | 0.0 | 0.9 | 0.00 | 0.06 | 0.06 | 84 | 1013.1 |
| 20260904030720 | 55 | 105 | 0.0 | 0.9 | 0.00 | 0.06 | 0.06 | 83 | 1013.1 |
| 20260904030215 | 56 | 112 | 0.0 | 0.0 | 0.00 | 0.06 | 0.06 | 82 | 1013.1 |
| 20260904025707 | 56 | 111 | 0.0 | 1.7 | 0.00 | 0.06 | 0.06 | 81 | 1012.8 |
| 20260904025201 | 57 | 121 | 0.0 | 0.9 | 0.00 | 0.06 | 0.06 | 81 | 1012.8 |
| 20260904024656 | 57 | 102 | 0.9 | 0.9 | 0.00 | 0.06 | 0.06 | 79 | 1012.8 |
| 20260904024151 | 58 | 85 | 0.9 | 0.9 | 0.00 | 0.06 | 0.06 | 79 | 1012.8 |
| 20260904023647 | 58 | 96 | 0.0 | 0.0 | 0.00 | 0.06 | 0.06 | 78 | 1012.8 |
| 20260904023143 | 59 | 100 | 0.0 | 0.0 | 0.00 | 0.06 | 0.06 | 77 | 1012.5 |
| 20260904022637 | 59 | 96 | 0.0 | 0.0 | 0.00 | 0.06 | 0.06 | 77 | 1012.5 |
| 20260904022134 | 59 | 108 | 0.0 | 0.0 | 0.00 | 0.06 | 0.06 | 76 | 1012.5 |
| 20260904021630 | 59 | 108 | 0.0 | 0.0 | 0.00 | 0.06 | 0.06 | 76 | 1012.5 |
| 20260904021125 | 60 | 109 | 0.0 | 0.0 | 0.00 | 0.06 | 0.06 | 76 | 1012.5 |
| 20260904020621 | 60 | 109 | 0.0 | 0.0 | 0.00 | 0.06 | 0.06 | 75 | 1012.5 |
| 20260904020115 | 60 | 100 | 0.0 | 0.9 | 0.00 | 0.06 | 0.06 | 75 | 1012.5 |
| 20260904015615 | 60 | 100 | 0.0 | 0.9 | 0.00 | 0.06 | 0.06 | 74 | 1012.5 |
| 20260904015114 | 60 | 102 | 0.0 | 0.0 | 0.00 | 0.06 | 0.06 | 74 | 1012.5 |
| 20260904014608 | 60 | 81 | 1.7 | 1.7 | 0.00 | 0.06 | 0.06 | 74 | 1012.5 |
| 20260904014104 | 61 | 51 | 0.9 | 1.7 | 0.00 | 0.06 | 0.06 | 73 | 1012.5 |
| 20260904013601 | 61 | 29 | 0.9 | 1.7 | 0.00 | 0.06 | 0.06 | 73 | 1012.5 |
| 20260904013057 | 61 | 79 | 0.9 | 1.7 | 0.00 | 0.06 | 0.06 | 73 | 1012.5 |
| 20260904012556 | 62 | 69 | 0.9 | 1.7 | 0.00 | 0.06 | 0.06 | 71 | 1012.5 |
| 20260904012055 | 62 | 92 | 0.0 | 0.9 | 0.00 | 0.06 | 0.06 | 71 | 1012.5 |
| 20260904011549 | 62 | 120 | 0.0 | 0.9 | 0.00 | 0.06 | 0.06 | 72 | 1012.5 |
| 20260904011045 | 63 | 52 | 0.9 | 1.7 | 0.00 | 0.06 | 0.06 | 70 | 1012.1 |
| 20260904010540 | 64 | 93 | 0.9 | 0.9 | 0.00 | 0.06 | 0.06 | 68 | 1012.5 |
| 20260904010031 | 66 | 72 | 0.9 | 1.7 | 0.00 | 0.06 | 0.06 | 66 | 1012.1 |
| 20260904005525 | 66 | 122 | 0.0 | 0.9 | 0.00 | 0.06 | 0.06 | 64 | 1012.1 |
| 20260904005021 | 65 | 80 | 0.0 | 0.9 | 0.00 | 0.06 | 0.06 | 64 | 1012.1 |
| 20260904004517 | 66 | 100 | 0.0 | 0.9 | 0.00 | 0.06 | 0.06 | 63 | 1012.1 |
| 20260904004016 | 66 | 106 | 0.0 | 0.9 | 0.00 | 0.06 | 0.06 | 63 | 1012.1 |
| 20260904003512 | 66 | 90 | 0.9 | 5.2 | 0.00 | 0.06 | 0.06 | 63 | 1012.1 |
| 20260904003008 | 66 | 117 | 0.0 | 0.9 | 0.00 | 0.06 | 0.06 | 64 | 1012.1 |
| 20260904002504 | 65 | 148 | 0.9 | 1.7 | 0.00 | 0.06 | 0.06 | 65 | 1012.5 |
| 20260904002004 | 66 | 121 | 0.9 | 1.7 | 0.00 | 0.06 | 0.06 | 64 | 1012.1 |
| 20260904001459 | 66 | 149 | 0.0 | 1.7 | 0.00 | 0.06 | 0.06 | 63 | 1012.1 |
| 20260904000958 | 65 | 117 | 0.0 | 3.5 | 0.00 | 0.06 | 0.06 | 64 | 1012.1 |
| 20260904000458 | 65 | 100 | 0.0 | 1.7 | 0.00 | 0.06 | 0.06 | 65 | 1012.1 |
| 20260903235954 | 65 | 89 | 0.9 | 2.6 | 0.00 | 0.06 | 0.06 | 65 | 1012.1 |
| 20260903235450 | 65 | 166 | 1.7 | 5.2 | 0.00 | 0.06 | 0.06 | 66 | 1012.1 |
| 20260903234949 | 64 | 118 | 0.0 | 1.7 | 0.00 | 0.06 | 0.06 | 69 | 1012.1 |
| 20260903234445 | 64 | 58 | 0.9 | 1.7 | 0.00 | 0.06 | 0.06 | 68 | 1012.1 |
| 20260903233941 | 63 | 83 | 0.0 | 1.7 | 0.00 | 0.06 | 0.06 | 69 | 1012.1 |
| 20260903233437 | 64 | 129 | 0.0 | 1.7 | 0.00 | 0.06 | 0.06 | 69 | 1012.1 |
| 20260903232932 | 63 | 189 | 2.6 | 3.5 | 0.00 | 0.06 | 0.06 | 68 | 1012.5 |
| 20260903232427 | 63 | 195 | 2.6 | 5.2 | 0.00 | 0.06 | 0.06 | 68 | 1012.1 |
| 20260903231926 | 64 | 206 | 3.5 | 3.5 | 0.00 | 0.06 | 0.06 | 66 | 1012.1 |
| 20260903231421 | 64 | 117 | 1.7 | 1.7 | 0.00 | 0.06 | 0.06 | 67 | 1012.5 |
| 20260903230916 | 64 | 102 | 0.0 | 2.6 | 0.00 | 0.06 | 0.06 | 68 | 1012.5 |
| 20260903230412 | 63 | 118 | 1.7 | 1.7 | 0.00 | 0.06 | 0.06 | 69 | 1012.5 |
| 20260903225909 | 63 | 200 | 0.9 | 1.7 | 0.00 | 0.06 | 0.06 | 68 | 1012.5 |
| 20260903225404 | 63 | 106 | 0.0 | 1.7 | 0.00 | 0.06 | 0.06 | 69 | 1012.5 |
| 20260903224900 | 63 | 103 | 0.0 | 0.9 | 0.00 | 0.06 | 0.06 | 68 | 1012.5 |
| 20260903224356 | 63 | 123 | 0.0 | 0.9 | 0.00 | 0.06 | 0.06 | 69 | 1012.5 |
| 20260903223852 | 62 | 118 | 0.0 | 1.7 | 0.00 | 0.06 | 0.06 | 69 | 1012.5 |
| 20260903223350 | 63 | 101 | 0.9 | 2.6 | 0.00 | 0.06 | 0.06 | 69 | 1012.5 |
| 20260903222845 | 64 | 107 | 0.9 | 3.5 | 0.00 | 0.06 | 0.06 | 68 | 1012.5 |
| 20260903222344 | 64 | 168 | 0.9 | 1.7 | 0.00 | 0.06 | 0.06 | 68 | 1012.5 |
| 20260903221839 | 65 | 108 | 0.0 | 1.7 | 0.00 | 0.06 | 0.06 | 67 | 1012.5 |
| 20260903221338 | 64 | 110 | 0.9 | 1.7 | 0.00 | 0.06 | 0.06 | 68 | 1012.5 |
| 20260903220836 | 64 | 92 | 0.0 | 1.7 | 0.00 | 0.06 | 0.06 | 68 | 1012.5 |
| 20260903220331 | 64 | 117 | 0.9 | 0.9 | 0.00 | 0.06 | 0.06 | 68 | 1012.5 |
| 20260903215829 | 63 | 100 | 1.7 | 1.7 | 0.00 | 0.06 | 0.06 | 69 | 1012.5 |
| 20260903215326 | 64 | 94 | 0.0 | 1.7 | 0.00 | 0.06 | 0.06 | 69 | 1012.5 |
| 20260903214823 | 63 | 111 | 0.0 | 2.6 | 0.00 | 0.06 | 0.06 | 70 | 1012.5 |
| 20260903214314 | 64 | 123 | 1.7 | 5.2 | 0.00 | 0.06 | 0.06 | 70 | 1012.5 |
| 20260903213808 | 64 | 117 | 0.9 | 1.7 | 0.00 | 0.06 | 0.06 | 68 | 1012.5 |
| 20260903213304 | 64 | 214 | 1.7 | 3.5 | 0.00 | 0.06 | 0.06 | 69 | 1012.5 |
| 20260903212759 | 63 | 117 | 0.9 | 6.1 | 0.00 | 0.06 | 0.06 | 71 | 1012.5 |
| 20260903212256 | 63 | 77 | 1.7 | 3.5 | 0.00 | 0.06 | 0.06 | 70 | 1012.5 |
| 20260903211755 | 63 | 103 | 0.9 | 1.7 | 0.00 | 0.06 | 0.06 | 71 | 1012.5 |
| 20260903211252 | 63 | 113 | 0.9 | 2.6 | 0.00 | 0.06 | 0.06 | 70 | 1012.5 |
| 20260903210747 | 64 | 96 | 1.7 | 2.6 | 0.00 | 0.06 | 0.06 | 69 | 1012.1 |
| 20260903210242 | 63 | 106 | 1.7 | 1.7 | 0.00 | 0.06 | 0.06 | 70 | 1012.1 |
| 20260903205736 | 63 | 59 | 0.9 | 6.1 | 0.00 | 0.06 | 0.06 | 70 | 1012.1 |
| 20260903205236 | 63 | 165 | 2.6 | 6.1 | 0.00 | 0.06 | 0.06 | 70 | 1012.1 |
| 20260903204731 | 62 | 98 | 0.9 | 2.6 | 0.00 | 0.06 | 0.06 | 71 | 1011.8 |
| 20260903204227 | 64 | 203 | 1.7 | 2.6 | 0.00 | 0.06 | 0.06 | 70 | 1011.8 |
| 20260903203723 | 63 | 89 | 1.7 | 7.0 | 0.00 | 0.06 | 0.06 | 71 | 1012.1 |
| 20260903203218 | 64 | 115 | 0.9 | 6.1 | 0.00 | 0.06 | 0.06 | 69 | 1011.8 |
| 20260903202712 | 64 | 105 | 0.0 | 0.9 | 0.00 | 0.06 | 0.06 | 68 | 1011.8 |
| 20260903202208 | 64 | 124 | 1.7 | 8.7 | 0.00 | 0.06 | 0.06 | 68 | 1011.8 |
| 20260903201707 | 64 | 179 | 7.8 | 11.3 | 0.00 | 0.06 | 0.06 | 67 | 1011.3 |
| 20260903201202 | 66 | 66 | 3.5 | 3.5 | 0.00 | 0.06 | 0.06 | 66 | 1011.3 |
| 20260903200656 | 65 | 108 | 0.9 | 7.0 | 0.00 | 0.06 | 0.06 | 66 | 1011.3 |
| 20260903200152 | 65 | 84 | 1.7 | 13.0 | 0.00 | 0.06 | 0.06 | 66 | 1011.3 |
| 20260903195647 | 65 | 71 | 1.7 | 9.6 | 0.00 | 0.06 | 0.06 | 66 | 1011.3 |
| 20260903195143 | 65 | 192 | 4.3 | 6.1 | 0.00 | 0.06 | 0.06 | 64 | 1011.3 |
| 20260903194643 | 66 | 120 | 3.5 | 6.1 | 0.00 | 0.06 | 0.06 | 63 | 1011.3 |
| 20260903194137 | 64 | 150 | 5.2 | 7.8 | 0.00 | 0.06 | 0.06 | 67 | 1011.3 |
| 20260903193633 | 63 | 168 | 6.1 | 11.3 | 0.00 | 0.06 | 0.06 | 70 | 1011.0 |
| 20260903193128 | 65 | 91 | 2.6 | 9.6 | 0.00 | 0.06 | 0.06 | 68 | 1011.0 |
| 20260903192625 | 65 | 149 | 3.5 | 5.2 | 0.00 | 0.06 | 0.06 | 67 | 1011.3 |
| 20260903192120 | 65 | 111 | 7.0 | 12.2 | 0.00 | 0.06 | 0.06 | 66 | 1011.0 |
| 20260903191616 | 64 | 112 | 1.7 | 13.0 | 0.00 | 0.06 | 0.06 | 68 | 1011.0 |
| 20260903191111 | 65 | 101 | 3.5 | 7.8 | 0.00 | 0.06 | 0.06 | 67 | 1011.0 |
| 20260903190610 | 63 | 161 | 5.2 | 9.6 | 0.00 | 0.06 | 0.06 | 69 | 1011.0 |
| 20260903190105 | 62 | 127 | 2.6 | 9.6 | 0.00 | 0.06 | 0.06 | 71 | 1011.0 |
| 20260903185600 | 63 | 106 | 3.5 | 7.8 | 0.00 | 0.06 | 0.06 | 70 | 1011.0 |
| 20260903185056 | 63 | 115 | 6.1 | 12.2 | 0.00 | 0.06 | 0.06 | 70 | 1011.0 |
| 20260903184552 | 63 | 181 | 3.5 | 7.8 | 0.00 | 0.06 | 0.06 | 70 | 1011.0 |
| 20260903184047 | 63 | 90 | 5.2 | 11.3 | 0.00 | 0.06 | 0.06 | 70 | 1010.7 |
| 20260903183546 | 63 | 127 | 4.3 | 9.6 | 0.00 | 0.06 | 0.06 | 69 | 1010.7 |
| 20260903183041 | 63 | 205 | 7.0 | 9.6 | 0.00 | 0.06 | 0.06 | 70 | 1010.7 |
| 20260903182539 | 64 | 156 | 7.0 | 12.2 | 0.00 | 0.06 | 0.06 | 70 | 1010.7 |
| 20260903182037 | 62 | 153 | 1.7 | 13.9 | 0.00 | 0.06 | 0.06 | 73 | 1010.7 |
| 20260903181534 | 62 | 181 | 10.4 | 13.9 | 0.00 | 0.06 | 0.06 | 72 | 1010.7 |
| 20260903181034 | 62 | 181 | 6.1 | 13.0 | 0.00 | 0.06 | 0.06 | 74 | 1010.7 |
| 20260903180530 | 62 | 296 | 3.5 | 13.0 | 0.00 | 0.06 | 0.06 | 75 | 1010.7 |
| 20260903180029 | 62 | 184 | 4.3 | 11.3 | 0.00 | 0.06 | 0.06 | 75 | 1010.7 |
| 20260903175528 | 61 | 108 | 3.5 | 9.6 | 0.00 | 0.06 | 0.06 | 76 | 1010.7 |
| 20260903175028 | 61 | 130 | 5.2 | 15.6 | 0.00 | 0.06 | 0.06 | 76 | 1010.3 |
| 20260903174523 | 61 | 103 | 4.3 | 11.3 | 0.00 | 0.06 | 0.06 | 75 | 1010.3 |
| 20260903174018 | 61 | 132 | 3.5 | 15.6 | 0.00 | 0.06 | 0.06 | 76 | 1010.3 |
| 20260903173512 | 61 | 116 | 4.3 | 13.0 | 0.00 | 0.06 | 0.06 | 74 | 1010.3 |
| 20260903173009 | 60 | 158 | 7.0 | 14.8 | 0.00 | 0.06 | 0.06 | 75 | 1010.0 |
| 20260903172503 | 60 | 177 | 8.7 | 13.0 | 0.00 | 0.06 | 0.06 | 76 | 1010.3 |
| 20260903171959 | 61 | 153 | 7.8 | 14.8 | 0.00 | 0.06 | 0.06 | 75 | 1010.3 |
| 20260903171454 | 60 | 111 | 7.0 | 14.8 | 0.00 | 0.06 | 0.06 | 73 | 1010.3 |
| 20260903170948 | 60 | 108 | 2.6 | 12.2 | 0.00 | 0.06 | 0.06 | 74 | 1010.3 |
| 20260903170442 | 60 | 140 | 5.2 | 13.9 | 0.00 | 0.06 | 0.06 | 77 | 1010.0 |
| 20260903165942 | 59 | 173 | 7.8 | 11.3 | 0.00 | 0.06 | 0.06 | 79 | 1010.0 |
| 20260903165436 | 59 | 115 | 9.6 | 11.3 | 0.00 | 0.06 | 0.06 | 78 | 1009.6 |
| 20260903164930 | 59 | 150 | 5.2 | 13.9 | 0.00 | 0.06 | 0.06 | 79 | 1010.0 |
| 20260903164426 | 58 | 118 | 7.0 | 11.3 | 0.00 | 0.06 | 0.06 | 81 | 1009.6 |
| 20260903163925 | 58 | 116 | 4.3 | 9.6 | 0.00 | 0.06 | 0.06 | 81 | 1010.0 |
| 20260903163422 | 58 | 175 | 7.8 | 12.2 | 0.00 | 0.06 | 0.06 | 82 | 1010.0 |
| 20260903162917 | 58 | 201 | 2.6 | 11.3 | 0.00 | 0.06 | 0.06 | 83 | 1010.0 |
| 20260903162414 | 57 | 116 | 6.1 | 11.3 | 0.00 | 0.06 | 0.06 | 83 | 1010.0 |
| 20260903161909 | 57 | 148 | 5.2 | 11.3 | 0.00 | 0.06 | 0.06 | 84 | 1010.0 |
| 20260903161404 | 57 | 157 | 6.1 | 13.9 | 0.00 | 0.06 | 0.06 | 84 | 1010.0 |
| 20260903160901 | 57 | 112 | 7.8 | 13.0 | 0.00 | 0.06 | 0.06 | 84 | 1010.0 |
| 20260903160359 | 57 | 131 | 6.1 | 13.0 | 0.00 | 0.06 | 0.06 | 85 | 1010.0 |
| 20260903155858 | 57 | 128 | 5.2 | 13.9 | 0.00 | 0.06 | 0.06 | 85 | 1010.0 |
| 20260903155353 | 56 | 184 | 7.8 | 9.6 | 0.00 | 0.06 | 0.06 | 86 | 1010.0 |
| 20260903154848 | 56 | 141 | 7.8 | 12.2 | 0.00 | 0.06 | 0.06 | 86 | 1010.0 |
| 20260903154344 | 56 | 186 | 7.8 | 9.6 | 0.00 | 0.06 | 0.06 | 86 | 1010.0 |
| 20260903153839 | 56 | 129 | 4.3 | 11.3 | 0.00 | 0.06 | 0.06 | 86 | 1009.6 |
| 20260903153335 | 56 | 132 | 1.7 | 13.0 | 0.07 | 0.06 | 0.06 | 86 | 1010.0 |
| 20260903152831 | 56 | 166 | 6.1 | 8.7 | 0.07 | 0.06 | 0.06 | 87 | 1010.0 |
| 20260903152327 | 56 | 146 | 2.6 | 13.0 | 0.00 | 0.05 | 0.05 | 87 | 1010.0 |
| 20260903151821 | 55 | 117 | 3.5 | 9.6 | 0.00 | 0.05 | 0.05 | 87 | 1010.0 |
| 20260903151317 | 55 | 147 | 3.5 | 7.0 | 0.00 | 0.05 | 0.05 | 87 | 1010.0 |
| 20260903150812 | 55 | 149 | 5.2 | 8.7 | 0.00 | 0.05 | 0.05 | 87 | 1010.0 |
| 20260903150312 | 55 | 123 | 5.2 | 8.7 | 0.00 | 0.05 | 0.05 | 87 | 1009.6 |
| 20260903145807 | 55 | 137 | 2.6 | 7.8 | 0.00 | 0.05 | 0.05 | 88 | 1010.0 |
| 20260903145305 | 55 | 89 | 5.2 | 7.0 | 0.00 | 0.05 | 0.05 | 87 | 1010.0 |
| 20260903144801 | 55 | 182 | 7.0 | 12.2 | 0.00 | 0.05 | 0.05 | 88 | 1009.6 |
| 20260903144257 | 55 | 182 | 4.3 | 9.6 | 0.00 | 0.05 | 0.05 | 88 | 1010.0 |
| 20260903143752 | 55 | 204 | 5.2 | 8.7 | 0.00 | 0.05 | 0.05 | 89 | 1009.6 |
| 20260903143248 | 54 | 126 | 1.7 | 11.3 | 0.00 | 0.05 | 0.05 | 89 | 1009.6 |
| 20260903142744 | 55 | 125 | 3.5 | 7.8 | 0.00 | 0.05 | 0.05 | 89 | 1010.0 |
| 20260903142240 | 55 | 176 | 1.7 | 8.7 | 0.00 | 0.05 | 0.05 | 89 | 1009.6 |
| 20260903141735 | 55 | 170 | 4.3 | 7.0 | 0.00 | 0.05 | 0.05 | 88 | 1009.6 |
| 20260903141231 | 55 | 125 | 0.9 | 7.0 | 0.00 | 0.05 | 0.05 | 88 | 1009.6 |
| 20260903140726 | 55 | 206 | 3.5 | 11.3 | 0.00 | 0.05 | 0.05 | 88 | 1009.6 |
| 20260903140221 | 55 | 91 | 4.3 | 7.8 | 0.00 | 0.05 | 0.05 | 88 | 1009.6 |
| 20260903135716 | 55 | 169 | 9.6 | 12.2 | 0.00 | 0.05 | 0.05 | 88 | 1009.6 |
| 20260903135212 | 55 | 111 | 7.0 | 13.9 | 0.00 | 0.05 | 0.05 | 87 | 1009.6 |
| 20260903134710 | 55 | 163 | 8.7 | 13.9 | 0.00 | 0.05 | 0.05 | 87 | 1009.6 |
| 20260903134207 | 55 | 168 | 7.8 | 12.2 | 0.00 | 0.05 | 0.05 | 88 | 1009.3 |
| 20260903133704 | 54 | 213 | 3.5 | 7.8 | 0.00 | 0.05 | 0.05 | 89 | 1009.3 |
| 20260903133200 | 54 | 151 | 3.5 | 7.8 | 0.00 | 0.05 | 0.05 | 89 | 1009.3 |
| 20260903132700 | 54 | 172 | 4.3 | 6.1 | 0.00 | 0.05 | 0.05 | 89 | 1009.3 |
| 20260903132154 | 54 | 183 | 5.2 | 7.8 | 0.00 | 0.05 | 0.05 | 90 | 1009.3 |
| 20260903131650 | 54 | 101 | 4.3 | 14.8 | 0.00 | 0.05 | 0.05 | 90 | 1009.3 |
| 20260903131148 | 54 | 147 | 4.3 | 11.3 | 0.00 | 0.05 | 0.05 | 90 | 1009.3 |
| 20260903130644 | 54 | 150 | 4.3 | 12.2 | 0.00 | 0.05 | 0.05 | 91 | 1009.3 |
| 20260903130144 | 54 | 170 | 7.0 | 9.6 | 0.00 | 0.05 | 0.05 | 91 | 1009.0 |
| 20260903125642 | 54 | 200 | 8.7 | 15.6 | 0.00 | 0.05 | 0.05 | 91 | 1009.0 |
| 20260903125138 | 54 | 168 | 3.5 | 12.2 | 0.00 | 0.05 | 0.05 | 91 | 1009.0 |
| 20260903124637 | 54 | 118 | 1.7 | 9.6 | 0.00 | 0.05 | 0.05 | 91 | 1009.0 |
| 20260903124137 | 54 | 180 | 5.2 | 12.2 | 0.05 | 0.05 | 0.05 | 91 | 1009.3 |
| 20260903123631 | 54 | 176 | 5.2 | 12.2 | 0.05 | 0.05 | 0.05 | 91 | 1009.0 |
| 20260903123130 | 54 | 123 | 5.2 | 12.2 | 0.00 | 0.04 | 0.04 | 91 | 1009.0 |
| 20260903122624 | 54 | 178 | 6.1 | 9.6 | 0.07 | 0.04 | 0.04 | 91 | 1009.0 |